Погода в Бурукане

Погода в Бурукане : погода сейчас, прогноз погоды и архив. Всё, что Вы хотите узнать о погоде в Бурукане!

Поиск расширенной информации на нашем сайте:

Другие новости

Новости СМИ2

Главная страница сайта

Новости сайта

03.07.2017

Напоминаем, что на нашем специализированном сайте Метеоцентр.Азия вы можете получить высокодетализированные автоматические прогнозы погоды по пунктам России, СНГ и мира в авиационном формате (включающие направление и скорость ветра, видимость, явления погоды, количество и форму облачности, нижнюю и верхнюю границу облачности).

Рекомендуем: шарж минск

Погода в Бурукане - сегодня

Время (UTC), дата Ветер
(°,м/с) 
Видим.   Явления Облачность Т
(°С)
Тd
(°С)
f(%) Тe
(°С)
Pmin
(гПа)
dP
(гПа)
Po
(мм)
O2
(г/м3)
Тmin Tmax R s Состояние
почвы
18 18.01.18 340 (С) 20000 м    ясно 
-34.7 -38.3 70 -36  1022.8  0.9  750  348           
21 18.01.18 330 (СЗ) 20000 м    ясно 
-35.5 -39 70 -37  1024.2  1.5  752  350  -35.5      15  равномерный
сухой снег
100% 
00 19.01.18 320 (СЗ) 20000 м    ясно 
-35.2 -38.7 70 -36  1025.1  0.9  752  350           
03 19.01.18 040 (СВ) 20000 м    3/0 верхняя 
[Ci fib]
-21.4 -26.2 65 -22  1023.3  -0.6  752  330           
06 19.01.18 230 (ЮЗ) 20000 м    ясно 
-18.6 -24.4 60 -19  1022.5  -0.6  751  327           
09 19.01.18 тихо ()   20000 м    ясно 
-29.4 -32.3 76 -29  1024.3  0.9  752  341    -18.5       
12 19.01.18 тихо ()   10 км  слаб. снег  10/0 средняя 
[As op]
-30.4 -33.5 74 -30  1024.5  0.1  752  343           
15 19.01.18 330 (СЗ) 10 км  слаб. снег  10/0 средняя 
[As op]
-31.5 -34.7 73 -32  1024.5  0.1  752  344           
18 19.01.18 320 (СЗ) 20000 м  {снег}  8/0 верхняя 
[Ci fib]
-31.1 -34.2 74 -32  1023.8  -0.6  752  344           
21 19.01.18 310 (СЗ) 10 км  слаб. снег  10/0 
-28.7 -31.7 75 -29  1023.1  -0.5  751  340  -32.1    0.2  15  равномерный
сухой снег
100% 
00 20.01.18 330 (СЗ) 10 км  слаб. снег  10/0 средняя 
[As op]
-28.2 -31.3 75 -32  1023.1  751  339           
03 20.01.18 010 (С) 20000 м  {снег}  3/0 средняя, верхняя 
[Ac trans|Ci fib]
-21.4 -25.7 68 -22  1021.4  -1.1  750  330           
06 20.01.18 030 (СВ) 20000 м  {снег}  6/0 верхняя 
[Cs]
-18.7 -23.5 66 -21  1019.9  -1.2  749  326           
09 20.01.18 020 (С) 20000 м    4/0 верхняя 
[Ci fib]
-25.8 -28.3 79 -26  1020.7  0.2  750  335    -18.4  0.2     
12 20.01.18 330 (СЗ) 20000 м    3/0 верхняя 
[Cs]
-31.5 -34.7 73 -32  1020.8  -0.4  749  343           
15 20.01.18 320 (СЗ) 20000 м    ясно 
-34.7 -38.1 71 -36  1020.1  -0.9  749  348           
18 20.01.18 340 (С) 20000 м    1/0 верхняя 
[Ci fib]
-37.1 -40.9 68 -38  1019.6  -0.7  748  351           
21 20.01.18 тихо ()   20000 м    ясно 
-38.4 -42.2 67 -38  1018.7  -0.9  747  352  -38.4      15  равномерный
сухой снег
100% 
00 21.01.18 330 (СЗ) 20000 м    ясно 
-37.8 -41.7 67 -42  1018.2  -0.4  747  351  -39.3         
03 21.01.18 010 (С) 20000 м    ясно 
-23 -28.4 61 -26  1015.3  -1.6  746  330           
06 21.01.18 080 (В) 20000 м    ясно 
-21 -29.2 48 -21  1013.6  -1.5  745  327           
09 21.01.18 тихо ()   20000 м    ясно 
-31.8 -35.2 72 -32  1014.3  -0.2  744  341    -20.6       
12 21.01.18 тихо ()   20000 м    ясно 
-37 -40.7 68 -37  1014.1  -0.7  744  349           
15 21.01.18 тихо ()   20000 м    ясно 
-39.7 -43.7 66 -40  1013.9  -0.4  744  353           
18 21.01.18 тихо ()   20000 м    ясно 
-40.3 -44.4 65 -40  1014.1  0.1  744  354           
Время (UTC), дата Ветер
(°,м/с) 
Видим.   Явления Облачность Т
(°С)
Тd
(°С)
f(%) Тe
(°С)
Pmin
(гПа)
dP
(гПа)
Po
(мм)
O2
(г/м3)
Тmin Tmax R s Состояние
почвы

Для получения пояснительной информации подведите курсор к названию столбца.

ПОГОДА в Бурукане - архив

Всё, что Вы хотите узнать о погоде в Бурукане - удобно и подробно!

Выберите нужную дату (начиная с 1 января 2015* года) и нажмите кнопку "Найти".
Будут отображены архивные сводки погоды по пункту Бурукан, начиная с указанной даты.


Отображать данные в формате CSV (для использования в таблицах Excel)


Внимание! Наш архив погоды предназначен исключительно для личного некоммерческого использования в познавательных целях. Если Вам необходимы официальные справки о состоянии погоды (для производственных, юридических, коммерческих и т.п. целей), обращайтесь в органы Росгидромета.

*Примечание: данная дата относится к архиву по метеостанциям СССР (Россия, СНГ, Балтия).
Архив по метеостанциям Зарубежной Европы и Азии (кроме Китая) хранится 10 дней, по другим регионам земного шара (Китай, Африка, Америка, Австралия, Океания) - 1 день.

Бурукан - район местоположения метеостанции


Название, широта, долгота, высота метеостанции:
Бурукан 53.1°ш. 136°д. 153 м над ур. моря [Российская Федерация]

Дополнительная информация

В oтличие oт бoльшинства пoгoдных сайтoв мы публикуем пoдрoбную метеoинфoрмацию в детальнoм прoфессиoнальнoм фoрмате.

Характеристики температуры и влажнoсти вoздуха измеряются на высoте 2 м в тени вдали oт зданий и деревьев.
Скoрoсть ветра измеряется на высoте 10 м (на урoвне рoста челoвека скoрoсть ветра ниже в 1.5-2 раза). Если метеoстанция нахoдится в гoрoде или в лесу, тo скoрoсть ветра занижена на 2-4 м/с пo сравнению с oткрытым местoм. Скoрoсть ветра над акватoриями крупных рек и oзёр, а также на вершинах хoлмoв на 2-5 м/с выше, чем в oбычных услoвиях.
Атмoсфернoе давление в разных тoчках местнoсти мoжет значительнo oтличаться oт давления на метеoстанции, в зависимoсти oт услoвий рельефа (при пoдъёме на 10 м давление пoнижается примернo на 1 мм рт.ст.).